CZ-3B R/B (49116 NORAD) Tracking and Keplerian Element Data

This shows tracking and keplerian element data for the satellite.

Feedback or suggestion? Click here.




ElementValue
Catalog49116
NameCZ-3B R/B
Epoch Orbit59
Epoch Day260.96176476
Epoch Year2021
RAAN195.9394
Inclination28.4639
Eccentricity0.7212303
Argument of Perigee194.7688
Mean Anonmoly118.0996
Mean Motion2.42431038
Decay Rate0.0010519
L11 49116U 21077B 21260.96176476 .00105190 34461-6 81533-3 0 9998
L22 49116 28.4639 195.9394 7212303 194.7688 118.0996 2.42431038 591



Live tracking and technical data element details for CZ-3B R/B (NORAD 49116). CZ-3B R/B can be tracked NOW for your location showing map with azimuth and elevation plus other details from your city location.







IsCatalogInMostPopularTable: catalog: 49116, numindb: 60
Update: records affected: 1



GetName: 49116 CZ-3B R/B

Hit Count: updated at: Sun, 28 May 2023 20:40:08 GMT